220P/McNaught (2020)

Japanese version
Home page
Updated on August 14, 2020

---------------------------------------------------------------------

* Profile

* Pictures

* Orbital Elements

Epoch 2020 Dec. 17.0 TT = JDT 2459200.5
T 2020 Dec. 10.62866 TT                                 Rudenko
q   1.5523528            (2000.0)            P               Q
n   0.17917736     Peri.  180.53111     +0.87145378     +0.48538738
a   3.1161185      Node   150.10234     -0.44948147     +0.84783709
e   0.5018313      Incl.    8.12871     -0.19630262     +0.21347450
P   5.50
From 417 observations 2004 May 20-2020 July 10, mean residual 0".5.

* Magnitudes Graph

        m1 = 14.0 + 5 log d + 15.0 log r

---------------------------------------------------------------------

The orbital elements are published on M.P.E.C. 2020-P19.
The magnitudes graphs are made with Comet for Windows.

---------------------------------------------------------------------

Copyright(C) Seiichi Yoshida (comet@aerith.net). All rights reserved.